Starlink 4264

decayed
NORAD ID: 52993 Int'l Des: 2022-076 Owner: SPXS Country: US Constellation: starlink
LEOCIRCULAR
グループ

Starlink 4264について

説明を読み込み中...

高度履歴

Altitude vs Time

uPlot chart will show altitude changes over time

軌道要素

1 52993U 22076H 26031.36583726 .00123510 17937-4 20624-3 0 9997
2 52993 53.2162 247.6859 0002873 158.2213 201.8942 16.02700141197401
Epoch: Jan 31, 2026 • Age: 766 hours

現在のステータス

高度 243.8 km
速度 7.77 km/s
衛星直下点 52.70°N, 100.48°W
打ち上げ日 Jul 7, 2022
運用期間 3.6 years
落下予定日 Jan 31, 2026
タイプ internet

技術仕様

分類 Payload
質量 297.00 kg
乾燥質量 275.00 kg
総質量 297.00 kg
長さ 0.20 m
直径 2.80 m
スパン 9.00 m
形状 Box + pan
製造者 SPXS
バスタイプ Starlink
フェーズステータス Reentered
所有者/国 SPXS/US

大規模コンステレーション

Loading constellations...